{"data":{"norad_id":67813,"intl_designator":"2026-032S","name":"STARLINK-36732","alt_names":[],"object_type":"PAYLOAD","status":"ACTIVE","operator":null,"country":"US","launch_date":"2026-02-15","launch_site_code":"AFWTR","launch_vehicle":null,"mission":null,"orbit_class":"UNKNOWN","rcs_meters":null,"size_class":null,"mass_kg":null,"dimensions":null,"purposes":["comms"],"wikipedia_slug":null,"has_3d_model":false,"image_url":null,"decayed_at":null,"tle_current":{"epoch":"2026-05-25T02:23:14.063712Z","epoch_age_seconds":60392,"freshness":"FRESH","line1":"1 67813U 26032S   26145.09946833  .00017822  00000+0  55291-3 0  9992","line2":"2 67813  97.2849 333.2373 0001397  91.8727 268.2676 15.33453748 16674","mean_motion":15.33453748,"eccentricity":0.0001397,"inclination_deg":97.2849,"raan_deg":333.2373,"arg_perigee_deg":91.8727,"mean_anomaly_deg":268.2676,"bstar":0.00055291,"rev_number":1667,"period_min":93.905668943593,"perigee_km":464.56108822431,"apogee_km":466.4732051929,"semimajor_km":6843.6541467086,"source":"CELESTRAK","updated_at":"2026-05-25T13:38:21.695375Z"}}}